Flag for Poland Weather past 2 weeks in Częstochowa, Poland

Now
27 °F

Clear.


Feels Like: 20 °F
Forecast: 22 / 31 °F
Wind: 6 mph from Southwest

Location: Katowice Airport

Current Time: Feb 1, 2015 at 6:39:31 AM

Latest Report: Feb 1, 2015 at 6:00 AM


Visibility: 5 mi

Pressure: 29.21 "Hg

Humidity: 86%

Dew point: 23 °F

Location of CzęstochowaLocation

Historic Weather in Częstochowa — Graph

°F

Częstochowa temperature yesterday

Maximum temperature yesterday: 32 °F (at 12:00 AM)
Minimum temperature yesterday: 28 °F (at 5:30 AM)
Average temperature yesterday: 31 °F

Past Weeks' High & Low Weather Summary

 TemperatureHumidityPressure
High48 °F (Jan 17, 11:30 AM)100% (Jan 17, 7:30 PM)30.24 "Hg (Jan 17, 7:30 PM)
Low23 °F (Jan 26, 9:00 PM)65% (Jan 30, 11:00 AM)28.77 "Hg (Jan 30, 4:30 PM)
Average33 °F92%29.79 "Hg
* Reported Jan 17 5:00 AM — Feb 1 5:30 AM, Częstochowa, Weather by CustomWeather, © 2014

Note: Actual official high and low records may vary slightly from our data, if they occured in-between our weather recording intervals... More about our weather records

Advertising

Częstochowa weather history for previous 24 hours

 ConditionsComfort  
Time TempWeatherWind HumidityBarometerVisibility
5:30 AM
Feb 1
27 °FClear.6 mph86%29.21 "Hg5 mi
5:00 AM27 °FClear.5 mph93%29.18 "Hg5 mi
4:30 AM27 °FClear.6 mph93%29.18 "Hg5 mi
4:00 AM28 °FPassing clouds.7 mph86%29.18 "Hg5 mi
3:30 AM28 °FPassing clouds.7 mph86%29.18 "Hg5 mi
3:00 AM28 °FClear.7 mph86%29.18 "Hg10 mi
2:30 AM30 °FClear.8 mph86%29.18 "Hg10 mi
2:00 AM30 °FClear.7 mph86%29.18 "Hg10 mi
1:30 AM30 °FClear.7 mph86%29.15 "Hg10 mi
1:00 AM30 °FClear.6 mph86%29.15 "Hg10 mi
12:30 AM32 °FClear.7 mph80%29.15 "Hg10 mi
12:00 AM32 °FClear.10 mph80%29.15 "Hg10 mi
11:30 PM
Jan 31
32 °FClear.9 mph80%29.15 "Hg10 mi
11:00 PM32 °FPassing clouds.12 mph87%29.15 "HgN/A
10:30 PM32 °FPassing clouds.12 mph87%29.12 "HgN/A
10:00 PM32 °FPassing clouds.12 mph87%29.12 "Hg6 mi
9:30 PM32 °FLight snow. Passing clouds.13 mph87%29.12 "Hg6 mi
9:00 PM32 °FLight snow. Passing clouds.12 mph87%29.09 "Hg5 mi
8:30 PM32 °FLight snow. Passing clouds.12 mph87%29.09 "Hg5 mi
8:00 PM32 °FPassing clouds.13 mph80%29.09 "Hg5 mi
7:30 PM32 °FLight snow. Passing clouds.15 mph80%29.09 "Hg5 mi
7:00 PM30 °FLight snow. Passing clouds.12 mph86%29.06 "Hg4 mi
6:30 PM30 °FClear.12 mph80%29.06 "Hg5 mi
6:00 PM30 °FClear.12 mph80%29.06 "Hg5 mi
5:30 PM30 °FClear.10 mph80%29.06 "Hg5 mi
5:00 PM30 °FClear.9 mph80%29.03 "Hg5 mi
4:30 PM30 °FSunny.12 mph80%29.03 "Hg10 mi
4:00 PM30 °FPassing clouds.9 mph80%29.00 "HgN/A
3:30 PM32 °FPassing clouds.12 mph75%29.00 "HgN/A
3:00 PM32 °FPassing clouds.14 mph75%29.00 "HgN/A
2:30 PM32 °FSunny.12 mph80%29.00 "Hg10 mi
2:00 PM32 °FSunny.12 mph80%29.00 "Hg10 mi
1:30 PM32 °FSunny.10 mph80%29.00 "Hg10 mi
1:00 PM32 °FPassing clouds.10 mph80%28.97 "Hg5 mi
12:30 PM32 °FPartly sunny.10 mph80%28.97 "Hg4 mi
12:00 PM32 °FLight snow. Ice fog.12 mph80%28.97 "Hg3 mi
11:30 AM30 °FPartly sunny.10 mph86%28.97 "Hg5 mi
11:00 AM30 °FPartly sunny.10 mph86%28.97 "Hg5 mi
10:30 AM30 °FPartly sunny.8 mph86%28.94 "HgN/A
10:00 AM30 °FPartly sunny.9 mph80%28.94 "HgN/A
9:30 AM28 °FPartly sunny.7 mph86%28.91 "HgN/A
9:00 AM28 °FPartly sunny.7 mph86%28.91 "HgN/A
8:30 AM28 °FPartly sunny.7 mph93%28.91 "HgN/A
8:00 AM28 °FScattered clouds.6 mph86%28.88 "HgN/A
7:30 AM28 °FScattered clouds.6 mph93%28.88 "HgN/A
7:00 AM28 °FClear.8 mph93%28.85 "Hg10 mi
6:30 AM28 °FClear.8 mph93%28.85 "Hg10 mi
6:00 AM28 °FClear.8 mph93%28.85 "Hg10 mi
Weather by CustomWeather, © 2014

See weather overviewHow to use our weather pages